FENGYUN 1C DEB

Satellite information

Favourite Embed

Satellite Type and Status

DEBRISIN ORBIT

Key statistics

Satellite FENGYUN 1C DEB at a glance.

Uptime

9609

Days in orbit

Revolutions

≈ 14.2

Per day

Orbit

SSO

Sun Synchronous Orbit

Inclination

98.8

Latest

Satellite identification and parameters

Extended collection of information and parameters for FENGYUN 1C DEB.

Object identification

Identified? True

Debris? True

Object name: FENGYUN 1C DEB

International designator: 1999-025EAD

Object number (NORAD): 36707

Object ID (CCSDS): 36707

Country: PEOPLES REPUBLIC OF CHINA (PRC)

Current information (Y/N): Y

RCS size: SMALL

Orbital parameters

Period: 101.636 minutes

Inclination: 98.7657 deg

SMA: 7214.267 km

Apoapsis: 872.583 km

Periapsis: 799.682 km

RAAN: 282.667 deg

Eccentricy: 0.00505257

Argument of periapsis: 82.7426 deg

Mean anomaly: 277.9488 deg

Mean motion: 14.16819178 rev/day

Mean motion (dot): 0.00001065 rev/day2

B* drag term: 0.00054664629 1/REarth

Two-line elements (TLE)

Creation date: Aug. 23, 2025, 5:13 p.m.

Reference frame: TEME

Reference center: EARTH

Epoch: Aug. 22, 2025, 8:54 p.m. UTC

TLE line 0: 0 FENGYUN 1C DEB

TLE line 1: 1 36707U 99025EAD 25234.87120801 .00001065 00000-0 54665-3 0 9992

TLE line 2: 2 36707 98.7657 282.6670 0050526 82.7426 277.9488 14.16819178624952

Live tracking on map

Real-time ground track for satellite FENGYUN 1C DEB.

In-orbit conjunctions

A list of the most updated potential collisions computed for object FENGYUN 1C DEB.

Target Orbit TCA Probability of collision Miss distance Type
METEOR 2-5 LEO 2024-09-19 08:42:36 0.0001064247 283.0 (m) PAYLOAD
DELTA 4 DEB SSO 2024-06-24 16:13:26 0.0003001341 160.0 (m) DEBRIS

Associated space launch

Chinese polar orbiting meteorological satellite

FENGYUN 1C DEB was lifted into orbit during the mission ‘Long March 4B | Feng Yun 1C’, on board a Long March 4B space rocket.

The launch took place on May 10, 1999, 1:33 a.m. from Launch Complex 7.

For more information about the launch, click the button.

Launch to space Long March 4B | Feng Yun 1C
Long March 4B | Feng Yun 1C

Agency: N/A

Status: Launch Successful

Launch date: May 10, 1999, 1:33 a.m. UTC

Rocket: Long March 4B

Launch pad: Launch Complex 7

Location: Taiyuan Satellite Launch Center, People's Republic of China

...

Latest news about this satellite

There are no fresh news available about this satellite. Check back as we update our databases every day.


Newsletter sign-up

Weekly statistics, charts and insights to help you stay on top of the space industry.